Home   Weather   Saint-Denis   Past weeks

Flag for France Past Weather in Saint-Denis, Île-de-France, France — Yesterday and Last 2 Weeks

Now
54 °F

Clear.


Feels Like: 53 °F
Forecast: 48 / 72 °F
Wind: 3 mph from Northeast

Location: Paris Le Bourget Airport

Current Time: Sep 27, 2016 at 12:39:42 AM

Latest Report: Sep 27, 2016 at 12:00 AM


Visibility: 10 mi

Pressure: 30.24 "Hg

Humidity: 77%

Dew Point: 46 °F

Location of Saint-DenisLocation

Past Weather in Saint-Denis — Graph

°F

Saint-Denis Temperature Yesterday

Maximum temperature yesterday: 70 °F (at 3:30 PM)
Minimum temperature yesterday: 46 °F (at 5:00 AM)
Average temperature yesterday: 57 °F

High & Low Weather Summary for the Past Weeks

 TemperatureHumidityPressure
High91 °F (Sep 13, 3:30 PM)100% (Sep 18, 4:30 AM)30.30 "Hg (Sep 18, 4:30 AM)
Low46 °F (Sep 26, 5:00 AM)30% (Sep 13, 4:00 PM)29.74 "Hg (Sep 13, 7:30 PM)
Average65 °F70%30.04 "Hg
* Reported Sep 11 11:00 PM — Sep 26 11:30 PM, Saint-Denis, Weather by CustomWeather, © 2016

Note: Actual official high and low records may vary slightly from our data, if they occured in-between our weather recording intervals... More about our weather records

Advertising

Saint-Denis Weather History for the Previous 24 Hours

Scroll right to see more
 ConditionsComfort  
Time TempWeatherWind HumidityBarometerVisibility
11:30 PM
Mon, Sep 26
55 °FClear.3 mph72%30.24 "Hg10 mi
11:00 PM57 °FClear.1 mph67%30.24 "Hg10 mi
10:30 PM55 °FClear.2 mph72%30.24 "Hg10 mi
10:00 PM55 °FClear.5 mph67%30.24 "Hg10 mi
9:30 PM59 °FClear.6 mph63%30.24 "Hg10 mi
9:00 PM61 °FClear.7 mph59%30.24 "Hg10 mi
8:30 PM61 °FClear.9 mph59%30.21 "Hg10 mi
8:00 PM63 °FClear.9 mph56%30.21 "Hg10 mi
7:30 PM64 °FSunny.8 mph52%30.21 "Hg10 mi
7:00 PM64 °FSunny.9 mph56%30.21 "Hg10 mi
6:30 PM66 °FSunny.9 mph52%30.21 "Hg10 mi
6:00 PM66 °FPassing clouds.5 mph49%30.21 "HgN/A
5:30 PM66 °FSunny.3 mph46%30.21 "Hg10 mi
4:30 PM68 °FScattered clouds.1 mph46%30.21 "HgN/A
4:00 PM68 °FBroken clouds.3 mph46%30.21 "HgN/A
3:30 PM70 °FBroken clouds.3 mph46%30.21 "HgN/A
3:00 PM68 °FMostly cloudy.3 mph49%30.21 "HgN/A
2:30 PM66 °FSunny.3 mph49%30.21 "Hg10 mi
2:00 PM68 °FPassing clouds.5 mph46%30.21 "HgN/A
1:30 PM66 °FPassing clouds.3 mph49%30.21 "HgN/A
1:00 PM64 °FPassing clouds.3 mph56%30.24 "HgN/A
12:30 PM63 °FPassing clouds.6 mph59%30.24 "HgN/A
12:00 PM59 °FPassing clouds.5 mph68%30.24 "HgN/A
11:30 AM57 °FSunny.6 mph72%30.24 "Hg10 mi
11:00 AM57 °FSunny.3 mph77%30.24 "Hg10 mi
10:30 AM55 °FSunny.2 mph82%30.24 "Hg10 mi
10:00 AM54 °FSunny.2 mph88%30.24 "Hg10 mi
9:30 AM52 °FSunny.1 mph94%30.24 "Hg10 mi
9:00 AM50 °FSunny.2 mph94%30.24 "Hg10 mi
8:30 AM50 °FSunny.2 mph88%30.24 "Hg10 mi
8:00 AM50 °FSunny.3 mph88%30.24 "Hg10 mi
7:30 AM48 °FClear.3 mph87%30.24 "Hg10 mi
7:00 AM48 °FClear.2 mph87%30.24 "Hg10 mi
6:30 AM46 °FClear.2 mph93%30.24 "Hg10 mi
6:00 AM46 °FClear.2 mph87%30.24 "Hg10 mi
5:30 AM46 °FClear.2 mph93%30.24 "Hg10 mi
5:00 AM46 °FClear.No wind87%30.24 "Hg10 mi
4:30 AM48 °FClear.2 mph87%30.24 "Hg10 mi
4:00 AM48 °FClear.3 mph87%30.24 "Hg10 mi
3:30 AM48 °FClear.2 mph87%30.24 "Hg10 mi
3:00 AM48 °FClear.3 mph87%30.24 "Hg10 mi
2:30 AM48 °FClear.3 mph87%30.24 "Hg10 mi
2:00 AM50 °FClear.1 mph82%30.24 "Hg10 mi
1:30 AM50 °FClear.2 mph88%30.24 "Hg10 mi
1:00 AM50 °FClear.3 mph88%30.24 "Hg10 mi
12:30 AM52 °FClear.1 mph82%30.24 "Hg10 mi
12:00 AM52 °FClear.2 mph82%30.24 "Hg10 mi
Weather by CustomWeather, © 2016

See weather overviewHow to use our weather pages